This is the latest recevied weather packets stored in our database for station/object WX5HOT. If no packets are shown the sender has not sent any weather packets the latest 10 day(s).
| Time | Temp. | Humidity | Pressure | Rain* | Wind** | Luminosity | Snow |
|---|---|---|---|---|---|---|---|
| 1777322596 | 25.56° C | 80% | 1059.9 hPa | 0 mm | - | 663 W/m² | - |
| 1777322293 | 26.11° C | 79% | 1059.9 hPa | 0 mm | - | 307 W/m² | - |
| 1777321989 | 25.56° C | 79% | 1059.9 hPa | 0 mm | - | 307 W/m² | - |
| 1777321686 | 25.56° C | 81% | 1060.1 hPa | 0 mm | - | 360 W/m² | - |
| 1777321382 | 25.56° C | 81% | 1060.2 hPa | 0 mm | - | 679 W/m² | - |
| 1777321080 | 25° C | 82% | 1059.9 hPa | 0 mm | - | 367 W/m² | - |
| 1777320778 | 25° C | 83% | 1060.2 hPa | 0 mm | - | 592 W/m² | - |
| 1777320474 | 25° C | 84% | 1060.4 hPa | 0 mm | - | 299 W/m² | - |
| 1777320172 | 25° C | 82% | 1060.4 hPa | 0 mm | - | 219 W/m² | - |
| 1777319868 | 25.56° C | 81% | 1060.6 hPa | 0 mm | - | 282 W/m² | - |
| 1777319565 | 25° C | 83% | 1060.4 hPa | 0 mm | - | 747 W/m² | - |
| 1777319262 | 24.44° C | 85% | 1060.6 hPa | 0 mm | - | 301 W/m² | - |
| 1777318959 | 24.44° C | 85% | 1060.6 hPa | 0 mm | - | 227 W/m² | - |
| 1777318656 | 24.44° C | 85% | 1060.3 hPa | 0 mm | - | 234 W/m² | - |
| 1777318352 | 23.89° C | 86% | 1060.4 hPa | 0 mm | - | 348 W/m² | - |
| 1777318049 | 23.89° C | 86% | 1060.7 hPa | 0 mm | - | 285 W/m² | - |
| 1777317746 | 23.89° C | 86% | 1060.4 hPa | 0 mm | - | 172 W/m² | - |
| 1777317443 | 24.44° C | 84% | 1060.5 hPa | 0 mm | - | 118 W/m² | - |
| 1777317139 | 24.44° C | 85% | 1060.5 hPa | 0 mm | - | 308 W/m² | - |
| 1777316836 | 24.44° C | 86% | 1060.6 hPa | 0 mm | - | 408 W/m² | - |
| 1777316533 | 23.89° C | 88% | 1060.4 hPa | 0 mm | - | 401 W/m² | - |
| 1777316230 | 23.89° C | 87% | 1060.4 hPa | 0 mm | - | 295 W/m² | - |
| 1777315927 | 23.33° C | 87% | 1060.5 hPa | 0 mm | - | 191 W/m² | - |
| 1777315625 | 23.33° C | 88% | 1060.4 hPa | 0 mm | - | 220 W/m² | - |
| 1777315323 | 23.33° C | 88% | 1060.2 hPa | 0 mm | - | 231 W/m² | - |
* Rain latest hour (hover to see other rain measurements)
** Current wind speed in m/s (hover to see current wind gust speed)